星链-34628 (STARLINK-34628)

导读 | 豆包AI

STARLINK-34628是美国SpaceX星链星座中的一颗卫星,于2025年7月19日发射升空,归属美国所有。星链系统旨在为全球提供高速卫星互联网接入服务,该卫星的发射进一步扩充了星链星座的在轨卫星规模,助力提升星座覆盖能力与网络服务性能,推动全球互联网络布局的完善。

基本信息
目录编号:
64864
目录名称:
STARLINK-34628
国际标识:
2025-152Y
轨道中心:
EARTH
卫星名称:
星链-34628
卫星全名:
星链-34628 (STARLINK-34628)
卫星状态:
在轨 (已飞行238 天)
发射日期:
2025-07-19 UTC
国别 :
美国 (US)
星等 :
--
轨道信息
数据来源 国际轨道数据 AOE轨道数据
星历时间 2026-03-14T07:18:02+0800
14小时前
查看轨道信息
2026-03-12T16:00:00+0800
2天前
查看轨道信息
半长轴 6927.633km 6927.653km
偏心率 0.0002259 0.0001923
轨道倾角 97.602° 97.604°
近地点辐角 68.684° 59.408°
升交点赤经 289.760° 288.145°
平近点角 291.462° 70.385°
近地点 547.931km 548.183km
远地点 551.061km 550.849km
周期 95.639分钟 95.640分钟
每日圈数 15.056552 15.056486
详细信息
固有亮度:
5
最大亮度:
2.5
卫星平台:
Starlink V1.0
覆盖范围:
全球
运营商:
太空探索技术公司
运营商所在国:
美国
制造商(研发单位):
太空探索技术公司
制造商所在国:
美国
使用方式:
暂无
卫星简介
Starlink 计划是 SpaceX 推出的全球卫星互联网项目,通过发射低轨道卫星,为全球尤其是偏远地区提供高速、低延迟的互联网服务。自 2019 年起,Starlink 已部署数千颗卫星,旨在缩小全球数字鸿沟,推动互联网普及。该项目还为军事、航空等行业提供通信支持,带来广泛经济效益。
2D轨道图
3D轨道图
轨道高度分析图
轨道倾角分析图
轨道综合分析图
查看轨道综合分析图